Regional Weather Roundup
Issued by NWS

Home | Current Version | Previous Version | Graphics & Text | Print | Product List | Glossary On
Versions: 1 2 3 4 5 6 7 8 9 10 11 12 13 14 15 16 17 18 19 20 21 22 23 24 25 26 27 28 29 30 31 32 33 34 35 36 37 38 39 40 41 42 43 44 45 46 47 48 49 50
196
ASUS43 KOAX 212202
RWRNE

WEATHER ROUNDUP FOR NEBRASKA
NATIONAL WEATHER SERVICE OMAHA NE
500 PM CDT THU MAY 21 2015

NOTES: SATELLITE DATA IS BEING USED TO AUGMENT CLOUD COVER ABOVE
       12000 FEET.
       "FAIR" INDICATES FEW OR NO CLOUDS BELOW 12,000 FEET WITH NO
       SIGNIFICANT WEATHER AND/OR OBSTRUCTIONS TO VISIBILITY.

  * THESE STATIONS DO NOT REPORT WEATHER SUCH AS RAIN...SNOW OR FOG.

NEZ001>004-019>022-054>056-212300-
NEBRASKA PANHANDLE

CITY           SKY/WX    TMP DP  RH WIND       PRES   REMARKS
SCOTTSBLUFF    CLOUDY    56  42  59 S14       30.17F
ALLIANCE       CLOUDY    56  43  61 S10       30.18F
CHADRON        CLOUDY    58  42  55 SE13      30.16F
KIMBALL          N/A    N/A N/A N/A MISG        N/A
SIDNEY         CLOUDY    57  44  62 SE18      30.18F
$$

NEZ057>060-069>072-079>082-212300-
SOUTHWEST NEBRASKA

CITY           SKY/WX    TMP DP  RH WIND       PRES   REMARKS
NORTH PLATTE   PTSUNNY   63  41  44 S9        30.21F
IMPERIAL       CLOUDY    58  43  57 SE12      30.21F
LEXINGTON      SUNNY     64  39  40 S8        30.22F
MCCOOK         CLOUDY    62  39  42 SE8       30.22F
$$

NEZ005>010-023>029-035>040-094-212300-
NORTH CENTRAL NEBRASKA

CITY           SKY/WX    TMP DP  RH WIND       PRES   REMARKS
VALENTINE      SUNNY     66  30  26 S10G18    30.19F
AINSWORTH      SUNNY     65  34  31 S8        30.20F
BROKEN BOW     SUNNY     64  37  36 MISG      30.21F
ORD            SUNNY     65  32  29 S5        30.20F
$$

NEZ041-046>049-061>064-073>077-083>087-212300-
SOUTH CENTRAL NEBRASKA

CITY           SKY/WX    TMP DP  RH WIND       PRES   REMARKS
GRAND ISLAND     N/A     65  32  29 CALM      30.23F
HASTINGS       SUNNY     64  36  35 VRB5      30.22F
KEARNEY *      SUNNY     63  36  36 CALM      30.23F
$$

NEZ011>018-030>034-042>045-212300-
NORTHEAST NEBRASKA

CITY           SKY/WX    TMP DP  RH WIND       PRES   REMARKS
NORFOLK        SUNNY     71  37  28 SW8       30.18F
BLAIR          SUNNY     71  35  27 SW10      30.17F
COLUMBUS *     SUNNY     70  37  30 S6        30.23F
FREMONT        SUNNY     72  36  26 SW7       30.18F
TEKAMAH        SUNNY     77  37  23 W12G20    30.15F
$$

NEZ050>053-065>068-078-088>093-212300-
SOUTHEAST NEBRASKA

CITY           SKY/WX    TMP DP  RH WIND       PRES   REMARKS
LINCOLN        SUNNY     69  39  33 SW6       30.21F
OMAHA EPPLEY   MOSUNNY   73  39  29 W7        30.16F
FALLS CITY     SUNNY     69  41  36 NW7       30.20F
PLATTSMOUTH    SUNNY     71  34  25 W9G16     30.18F
$$

NEZ044-045-051>053-067-212300-
OMAHA AREA

CITY           SKY/WX    TMP DP  RH WIND       PRES   REMARKS
OMAHA EPPLEY   MOSUNNY   73  39  29 W7        30.16F
BLAIR          SUNNY     71  35  27 SW10      30.17F
FREMONT        SUNNY     72  36  26 SW7       30.18F
PLATTSMOUTH    SUNNY     71  34  25 W9G16     30.18F
$$



USA.gov is the U.S. government's official web portal to all federal, state and local government web resources and services.